sat.trackr.live / text

‹ back to catalog

CSG-3

NORAD 67304 · 2026-001A

PAYLOAD ACTIVE UNKNOWN

§ Identity

Operator
Country
IT
Launch date
2026-01-03
Launch site
AFWTR
Launch vehicle
Mass (kg)
RCS (m²)

Purposes: earth_obs

External: N2YO · Heavens-Above · Gunter

§ Orbital elements

Epoch: 2026-09-19T21:59:32.693568Z

Period
97.16 min
Inclination
97.8916°
Eccentricity
0.0001346
Mean motion
14.82156513 rev/d
Perigee alt
621.6 km
Apogee alt
623.5 km
Semi-major
7,000.7 km
B*
2.8457e-5
RAAN
85.1718°
Arg perigee
88.3390°
Mean anomaly
271.7977°
Rev number
3,849

§ Raw data

CSG-31 67304U 26001A   26262.91635062  .00000174  00000+0  28457-4 0  99902 67304  97.8916  85.1718 0001346  88.3390 271.7977 14.82156513 38497

JSON: /api/v1/satellites/67304 · /tle

For live sub-satellite position, see the globe view (requires WebGL).

§ Visibility from observer

Set your observer location to see the next 7 days of passes ≥ 10°. The values pass through the URL so the page stays shareable.

No JS? Fill the form by hand. The geolocation button needs JavaScript.